Miscellaneous Local Product
Issued by NWS North Platte, NE

Home | Current Version | Previous Version | Text Only | Print | Product List | Glossary On
Versions: 1 2 3 4 5 6 7 8 9 10 11 12 13 14 15 16 17 18 19 20 21 22 23 24 25 26 27 28 29 30 31 32 33 34 35 36 37 38 39 40 41 42 43 44 45 46 47 48 49 50
000
AXUS43 KLBF 220810
MISLBF


WESTERN AND NORTH CENTRAL NEBRASKA HOURLY WEATHER ROUNDUP
NATIONAL WEATHER SERVICE NORTH PLATTE NE
200 AM CST WED FEB 22 2017

NOTE: "FAIR" INDICATES FEW OR NO CLOUDS BELOW 12,000 FEET WITH NO
SIGNIFICANT WEATHER AND/OR OBSTRUCTIONS TO VISIBILITY.

NOTE: STATIONS NOT REPORTING VARIABLES SUCH AS SKY/WEATHER OR
PRESSURE ARE PROVIDED BY RAWS AND APRS NETWORKS AND ARE NOT UNDER
NATIONAL WEATHER SERVICE QUALITY CONTROL.

...OBSERVATIONS IN AND NEAR THE EASTERN PANHANDLE OF NEBRASKA...

CITY           SKY/WX    TMP DP  RH WIND       PRES   REMARKS
PINE RIDGE     MOCLDY    42  33  70 CALM      29.76R
CHADRON        CLOUDY    49  37  63 W20G30    29.78R
ALLIANCE       CLEAR     44  31  60 NW15      29.79R
SIDNEY         CLEAR     46  15  28 CALM      29.79S
CRESCENT LAKE    N/A     46  20  35 W3          N/A
$$

...OBSERVATIONS IN NORTHERN NEBRASKA AND FAR SOUTHERN SOUTH DAKOTA...

CITY           SKY/WX    TMP DP  RH WIND       PRES   REMARKS
WINNER         FAIR      49  36  61 S10       29.66F
VALENTINE      PTCLDY    35  28  75 W5        29.68F WCI  31
THEDFORD       CLEAR     46  26  47 W6        29.75R
AINSWORTH      CLEAR     39  31  71 S7        29.72F WCI  34
O`NEILL        CLEAR     47  32  55 W9        29.73R
ORD            CLOUDY    46  33  60 NW6       29.69F
BROKEN BOW     MOCLDY    43  33  68 CALM      29.71F
VALENTINE NWR    N/A     43  27  52 N7          N/A
BUTTE            N/A     46  35  66 SW3         N/A
HALSEY           N/A     48  24  38 S5          N/A
CHAMBERS         N/A     48  28  46 CALM        N/A
EWING            N/A     47  33  58 SW3         N/A
$$

...OBSERVATIONS IN SOUTHWEST NEBRASKA AND FAR NORTHEAST COLORADO...

CITY           SKY/WX    TMP DP  RH WIND       PRES   REMARKS
HOLYOKE        FAIR      37  21  52 NW3       29.79F
IMPERIAL       CLOUDY    42  20  41 NW7       29.78F
OGALLALA       CLEAR     30  21  69 CALM      29.76F
NORTH PLATTE   CLEAR     31  25  78 CALM      29.75F
MCCOOK         PTCLDY    48  26  42 W12       29.74F
LEXINGTON      CLOUDY    36  29  75 N5        29.73F WCI  32
STAPLETON        N/A     43  26  51 CALM        N/A
GOTHENBURG       N/A     41  26  55 CALM        N/A
CALLAWAY         N/A     42  25  50 S10         N/A
$$

...OBSERVATIONS IN CENTRAL LINCOLN COUNTY AREA...

CITY           SKY/WX    TMP DP  RH WIND       PRES   REMARKS
N.P. AIRPORT   CLEAR     31  25  78 CALM      29.75F
N.P. DOWNTOWN    N/A     39  28  65 CALM        N/A
N.P. SOUTHEAST   N/A     40  27  59 CALM        N/A
N.P. HILLCREST   N/A     39  28  63 CALM        N/A
$$

...SOME OBSERVATIONS FROM AROUND THE REGION...

CITY           SKY/WX    TMP DP  RH WIND       PRES   REMARKS
LARAMIE        CLOUDY    32  25  75 NW18      29.94R WCI  20
CHEYENNE       CLEAR     47  18  31 W17       29.87S
DENVER         PTCLDY    53  15  22 SW20      29.87F
AKRON          CLOUDY    52  12  20 W16G25    29.81F
SCOTTSBLUFF    CLEAR     45  34  65 NW15      29.82R
RAPID CITY     CLOUDY    44  37  76 SW12      29.69F
BISMARCK       CLOUDY    33  32  96 CALM      29.66R FOG
PIERRE         CLOUDY    45  38  76 W8        29.65R
SIOUX FALLS    CLOUDY    41  37  86 SW6       29.62F
OMAHA          CLEAR     47  35  63 SE9       29.75S
GRAND ISLAND   PTCLDY    48  32  53 SW10      29.72F
KANSAS CITY    PTCLDY    47  35  63 S9        29.83F
WICHITA        CLEAR     44  37  76 SW7       29.86F
OKLAHOMA CITY  CLEAR     44  38  79 S3        29.91F
DALLAS         CLEAR     53  40  61 CALM      29.92S
AMARILLO       CLOUDY    42  29  59 W10       29.96F
DODGE CITY     CLEAR     43  23  45 SW9       29.86F
HAYS             N/A     47  25  42 SW10      29.80F
GOODLAND       CLOUDY    64  13  13 W21G30    29.81F
$$




USA.gov is the U.S. government's official web portal to all federal, state and local government web resources and services.